GFSMW_sfc_30mbdewp_087.txt.gz
Dewpoint
49 52 54 55 55 56 55 55 55 55 55 55 56 55 55 57 56 56 56 55 54 53 52 52 51 51 51 50 49 48 45 43 41 38 38 38 40 41 42 43 43 43 47
48 51 53 54 54 55 55 54 54 54 54 55 55 54 54 55 55 56 55 55 54 53 53 52 51 51 51 52 50 49 47 47 43 40 40 39 39 38 39 39 41 43 44
48 49 50 52 53 54 54 54 54 54 55 55 55 54 52 53 53 54 55 55 55 54 52 53 52 53 51 50 52 51 49 48 45 44 44 41 42 40 42 41 40 39 42
48 48 49 51 52 53 54 54 53 53 55 55 54 53 50 51 52 52 54 55 55 54 53 53 53 53 53 52 52 52 51 50 48 44 43 45 44 43 42 41 42 41 40
48 48 49 50 50 52 52 53 52 52 53 54 53 53 50 50 53 53 53 54 55 55 55 55 56 56 55 55 55 54 53 52 51 48 47 45 43 43 42 44 42 40 42
48 48 50 50 50 51 52 52 52 52 51 53 53 51 52 50 49 51 50 51 53 54 56 57 57 57 56 56 56 55 54 53 52 51 50 47 46 44 43 42 44 43 43
48 48 48 49 50 50 50 51 51 51 51 51 51 51 50 50 49 49 48 49 50 51 52 55 56 56 56 56 56 56 55 54 53 52 51 50 50 50 46 45 44 44 45
47 48 48 49 50 50 50 50 51 51 52 51 51 51 50 50 49 49 48 48 48 49 51 53 54 55 55 56 56 57 57 56 55 54 53 52 51 50 48 46 46 43 43
47 48 49 50 50 50 50 50 50 51 52 51 51 51 51 50 49 49 50 50 51 51 52 53 54 55 56 56 57 57 57 57 56 54 53 52 52 51 50 48 47 46 43
47 48 49 50 50 50 50 51 51 51 51 52 52 51 51 51 51 51 50 50 51 52 52 53 54 54 56 57 57 57 57 56 55 54 52 52 51 50 49 49 48 47 46
47 48 49 50 50 51 51 52 52 51 51 51 51 52 51 52 52 52 52 52 52 53 53 52 53 54 55 56 56 56 56 54 54 52 51 51 51 49 48 48 46 46 45
45 48 49 50 50 50 50 51 51 51 51 50 50 51 51 51 52 52 52 52 53 53 53 53 54 54 55 56 55 55 54 54 53 52 51 50 49 48 47 46 45 45 44
43 46 48 50 50 50 50 50 50 50 50 50 50 50 50 50 50 51 51 51 52 52 53 54 54 54 55 55 56 55 54 53 52 51 49 49 47 46 45 44 44 43 42
32 44 47 48 50 51 51 50 50 50 50 49 49 49 50 50 50 50 51 52 53 54 54 55 56 56 56 56 56 53 52 51 50 49 48 47 46 45 44 43 43 41 39
27 34 43 46 48 49 51 51 50 50 50 49 49 49 50 50 50 51 52 53 54 55 56 56 56 56 56 54 52 51 50 49 47 46 44 44 44 44 43 41 38 37 34
29 28 35 43 46 48 49 50 51 50 50 50 50 50 50 51 52 53 54 55 56 56 56 56 55 53 52 51 49 49 47 46 41 38 36 34 33 32 31 29 27 27 27
29 29 29 34 42 46 48 50 51 51 50 49 50 51 52 52 53 53 53 53 53 51 50 49 48 47 46 45 45 44 42 39 36 33 31 30 29 28 24 23 20 20 19
30 30 30 33 43 48 49 51 51 52 51 51 51 51 51 51 51 50 49 47 46 45 44 44 43 41 38 38 37 36 34 32 30 29 28 27 25 25 21 19 17 18 19
32 32 33 45 49 50 50 50 50 50 50 49 49 49 49 47 46 45 44 44 42 40 39 39 37 35 33 33 32 31 29 27 26 27 26 25 23 26 22 17 17 18 20
36 42 47 49 49 50 50 49 49 48 46 46 46 46 45 45 43 43 41 39 37 35 34 33 33 32 31 31 29 27 25 23 21 20 22 25 21 22 23 22 19 16 17
48 49 48 48 49 49 49 47 46 44 44 44 44 43 43 42 41 40 38 35 33 31 29 29 28 28 29 28 27 25 23 21 19 18 19 18 20 21 23 23 20 19 18
46 47 47 47 48 47 45 44 42 43 42 41 41 40 39 38 38 36 34 33 31 29 28 27 26 26 27 27 27 27 26 27 25 24 23 21 22 24 25 22 20 18 16
45 47 46 45 44 44 43 42 41 39 38 36 35 33 32 33 34 34 32 31 30 28 27 25 24 24 24 25 26 25 24 24 23 23 22 21 20 21 21 18 19 18 17
43 42 42 41 40 41 41 39 38 36 34 31 29 27 27 27 28 29 29 30 29 28 27 26 24 24 24 24 24 24 24 24 23 23 22 21 22 22 23 22 21 18 16
38 36 33 30 30 31 31 32 32 30 28 26 25 25 27 27 26 27 27 27 28 29 27 27 26 26 24 23 24 23 22 22 20 21 20 19 18 17 17 18 17 16 15
31 30 29 28 27 28 28 28 28 28 27 25 26 27 27 26 25 25 26 27 27 26 26 26 26 25 24 22 22 21 21 22 20 18 17 16 16 15 14 13 13 13 12

GFSMW_sfc_30mbdewp_093.txt.gz
Dewpoint
44 49 50 52 54 56 57 57 56 57 57 57 56 56 56 58 57 57 56 55 53 53 53 51 49 48 48 49 49 49 46 45 43 39 40 42 43 42 42 42 45 46 48
45 48 51 52 53 55 56 56 56 55 57 57 57 56 56 57 57 57 56 55 55 53 53 53 52 51 52 51 51 50 49 47 46 43 44 44 43 43 44 44 43 44 43
44 47 49 51 53 54 55 56 56 55 56 57 57 56 57 56 55 55 55 54 54 53 52 53 53 53 53 53 53 53 50 49 48 48 47 46 44 46 45 46 45 46 46
43 45 48 50 53 54 55 55 55 55 56 56 55 54 53 52 54 54 55 55 54 52 53 53 53 54 54 54 54 54 53 52 49 50 49 50 49 47 46 46 47 47 46
41 44 47 48 51 53 54 55 55 55 56 55 55 55 52 53 54 55 55 55 51 51 50 51 53 53 54 54 55 54 55 53 52 50 50 50 49 50 49 46 46 47 47
41 43 46 46 49 53 53 54 54 55 56 55 55 54 53 53 52 53 53 54 52 50 50 52 53 54 54 53 54 55 55 55 53 53 52 51 49 47 48 48 48 47 48
41 43 45 45 48 52 53 53 53 54 55 55 55 54 53 54 52 52 51 53 53 53 53 53 54 54 55 54 55 55 56 56 55 55 55 55 52 53 52 51 51 50 50
41 43 44 45 46 51 52 53 52 52 55 55 55 54 53 53 52 52 51 50 51 51 51 53 52 53 54 55 56 56 58 57 57 56 56 55 54 53 52 53 52 51 51
40 43 44 46 45 49 51 52 51 52 53 55 55 55 54 52 51 52 52 51 49 49 50 51 53 52 54 54 55 57 57 56 56 56 57 56 56 57 58 57 55 53 49
38 41 43 47 47 47 49 52 51 50 52 53 55 55 55 55 53 52 53 52 52 51 51 52 53 54 55 55 56 55 55 54 55 56 56 57 58 57 57 56 55 54 52
37 40 42 45 48 48 48 51 50 49 50 52 53 54 54 54 53 53 52 53 54 53 52 53 54 54 54 54 54 54 54 54 54 55 56 56 56 54 53 54 54 53 52
38 39 40 44 47 49 48 49 50 49 49 51 52 53 53 54 54 53 53 53 53 53 53 52 51 52 53 53 53 53 53 53 53 54 56 54 53 52 53 53 53 52 51
36 40 40 42 46 48 49 49 50 49 49 49 51 53 53 53 54 54 53 54 53 53 52 52 52 52 52 52 53 53 54 54 55 56 54 52 52 54 53 53 52 51 51
30 36 39 42 44 47 49 49 50 49 49 49 49 51 52 53 53 54 54 54 54 54 53 53 53 53 52 52 52 52 53 54 55 55 54 54 55 54 53 52 52 50 48
25 28 36 41 44 46 48 49 50 51 50 49 49 50 52 52 52 53 53 53 54 53 52 52 52 52 52 52 52 53 53 55 56 46 41 38 38 38 40 46 45 44 43
23 29 31 37 42 44 47 48 49 51 52 51 50 50 51 51 52 52 53 53 52 52 52 51 51 51 49 46 50 53 53 48 44 38 35 33 33 32 32 32 32 33 35
25 27 29 30 35 41 45 47 49 50 51 51 50 50 50 50 51 51 51 51 51 53 51 48 45 41 39 40 41 41 38 36 34 33 32 31 31 31 31 30 30 30 30
29 30 30 30 31 34 42 46 48 49 51 51 51 50 51 50 50 51 51 52 49 45 41 39 37 35 34 34 34 33 32 31 31 31 31 29 29 30 30 30 29 28 29
32 30 30 30 32 34 40 45 47 49 50 51 51 51 51 51 52 49 45 42 39 36 35 34 33 32 32 32 32 31 29 28 27 28 28 27 27 28 30 29 28 28 26
42 38 38 34 36 41 42 46 48 49 49 50 51 52 50 48 44 41 38 36 34 32 31 30 30 30 29 30 28 28 27 25 24 25 26 27 26 25 26 26 26 25 25
44 44 42 40 42 44 46 47 50 49 48 46 44 43 42 40 38 35 34 32 30 29 29 28 29 30 30 30 28 28 27 26 25 24 24 25 25 25 25 25 27 25 22
46 45 45 46 48 49 49 46 43 42 41 40 38 37 36 35 34 32 32 30 29 28 27 27 26 27 28 29 29 29 29 28 28 27 26 22 21 22 23 23 20 19 20
46 47 47 47 46 45 43 39 38 37 36 35 34 34 33 33 32 31 30 29 28 27 27 26 25 25 26 26 25 25 24 25 23 22 22 22 22 22 23 20 20 21 22
42 42 42 41 41 40 38 37 36 35 33 32 31 31 30 29 29 30 29 29 28 27 26 26 26 27 27 27 26 26 25 23 24 24 22 22 22 23 23 20 20 20 19
37 37 37 37 37 36 35 35 34 33 31 30 29 28 27 26 26 26 26 27 29 30 29 29 27 24 22 22 21 21 20 19 20 23 20 19 17 16 13 12 14 14 13
33 35 35 36 37 37 36 35 35 32 30 29 28 27 26 25 24 24 24 27 27 27 26 24 23 22 20 18 17 16 15 15 16 17 15 15 14 11 8 8 8 6 6

GFSMW_sfc_30mbdewp_096.txt.gz
Dewpoint
42 51 50 52 54 55 57 57 57 58 58 57 57 58 58 60 60 60 59 59 57 54 53 53 52 51 51 51 52 50 47 47 46 43 44 43 45 46 48 50 49 50 52
48 50 51 52 54 55 56 57 56 57 57 57 57 57 58 58 58 58 57 57 55 54 52 51 50 51 51 51 50 49 48 47 46 43 43 42 44 45 46 46 45 48 49
45 48 51 51 53 54 56 56 56 57 57 57 57 57 57 57 56 56 55 55 55 54 53 53 52 53 52 51 52 50 50 48 48 45 49 47 46 45 46 46 47 45 47
45 48 50 51 53 54 55 55 55 56 57 57 56 55 54 54 54 54 55 56 55 55 55 55 55 54 54 54 54 54 53 51 48 47 48 51 51 48 47 47 47 47 49
44 47 48 51 53 54 56 55 55 56 56 56 56 54 53 53 53 52 53 55 55 55 55 55 55 55 55 55 55 54 54 53 54 52 52 51 51 51 50 48 49 48 48
43 46 48 49 52 54 55 55 55 55 56 56 55 54 53 53 52 51 51 52 53 54 54 54 56 55 54 55 55 55 55 55 55 54 54 52 51 50 50 50 50 49 50
42 44 46 47 51 54 53 55 55 54 56 55 56 55 54 53 52 52 51 51 51 52 52 51 50 54 55 54 55 54 54 56 55 55 54 54 53 53 52 51 50 49 50
42 43 46 46 50 53 53 53 54 54 55 56 56 55 54 53 53 53 52 53 51 50 50 50 49 54 54 56 55 56 56 57 57 56 55 55 55 54 54 52 51 50 50
41 43 46 46 48 52 53 54 54 54 53 55 55 55 54 54 53 53 52 53 53 52 51 51 51 54 54 54 55 56 56 57 56 57 56 56 56 56 56 56 54 51 47
40 42 45 47 47 51 52 54 53 53 54 54 55 55 54 54 53 53 52 52 52 52 52 52 52 52 52 55 55 55 56 56 55 56 56 56 57 57 57 57 56 55 53
38 42 43 48 47 50 52 54 53 52 53 55 55 55 54 54 53 53 53 52 51 51 51 51 51 52 52 52 54 54 55 55 55 56 55 55 56 57 57 56 55 53 52
35 41 43 47 48 49 50 52 52 51 53 54 55 55 55 55 54 53 54 53 53 52 50 50 52 52 52 53 55 55 55 55 54 54 55 55 55 56 56 54 53 52 52
35 39 42 45 48 49 49 51 52 51 52 53 54 55 55 55 55 55 53 54 54 53 53 52 52 53 54 54 54 54 54 54 54 54 54 54 55 55 54 53 53 53 53
29 36 39 41 46 49 49 50 51 51 50 52 53 54 55 55 54 54 54 53 54 54 54 54 53 53 53 53 53 53 53 54 54 54 51 46 44 44 47 52 52 51 51
24 26 34 39 43 47 50 50 51 51 51 50 52 54 54 55 55 55 55 55 55 54 53 53 53 53 53 53 53 53 53 54 46 39 36 36 36 35 35 40 38 42 41
24 23 26 33 41 44 49 50 51 51 51 50 50 52 54 54 54 55 55 55 55 55 55 54 54 52 45 44 49 51 46 41 38 34 33 33 33 32 32 32 32 32 33
24 23 29 30 38 44 47 49 51 52 52 51 50 51 53 53 54 54 54 54 55 55 52 46 43 39 37 38 38 37 36 34 33 32 31 30 31 31 31 31 31 31 31
41 41 38 35 33 35 45 48 50 51 53 52 51 51 52 53 53 53 54 51 47 43 39 37 35 34 34 34 33 32 31 30 30 29 29 29 30 31 31 30 29 28 28
46 46 44 43 41 37 35 46 48 49 52 52 52 51 51 52 52 50 44 41 38 36 34 33 32 32 32 32 31 29 28 28 28 29 28 27 28 30 30 29 28 28 27
45 45 46 44 44 40 39 40 46 49 51 52 52 52 52 48 43 40 37 35 33 31 31 30 31 31 30 31 29 28 27 26 26 26 27 27 27 25 27 28 26 23 20
45 46 46 46 46 47 43 47 49 48 47 45 44 43 42 39 36 34 33 31 30 30 29 29 30 30 31 30 29 28 27 26 25 24 23 23 23 24 25 21 20 19 21
44 46 46 48 47 47 46 44 42 42 41 39 38 37 36 35 33 32 31 30 29 28 27 27 27 28 29 29 30 29 29 28 26 24 22 23 24 21 21 21 21 24 23
42 43 44 44 43 42 41 39 38 37 37 35 34 33 33 32 31 30 30 29 29 27 27 26 25 25 25 26 26 25 25 24 22 23 23 23 24 22 23 23 23 21 19
38 39 40 40 38 38 37 36 36 35 34 32 31 31 31 30 30 30 30 29 28 27 27 26 26 25 25 27 28 27 25 25 25 24 24 22 23 22 18 18 18 16 16
36 36 37 36 36 35 34 34 34 32 31 30 29 28 28 27 27 27 28 28 29 29 26 25 24 22 20 22 21 20 20 20 20 23 20 18 16 13 12 12 10 11 10
29 28 28 30 35 36 35 34 33 31 29 27 27 26 26 25 24 22 22 26 25 25 25 24 23 23 22 18 15 14 15 15 18 17 16 15 13 10 9 8 8 9 9

GFSMW_sfc_30mbdewp_102.txt.gz
Dewpoint
52 52 55 56 56 56 56 56 56 57 58 58 57 58 58 59 60 61 61 62 59 54 51 52 51 51 50 53 51 49 47 48 48 47 46 48 51 52 52 53 52 53 53
51 53 55 55 56 56 55 56 57 58 57 57 57 57 58 59 59 60 60 60 60 57 52 54 51 55 52 53 50 48 47 47 48 45 45 43 43 47 50 52 52 52 52
50 53 54 54 55 55 55 56 57 57 56 57 57 58 59 60 59 59 58 59 58 57 54 56 54 55 53 52 50 48 46 46 47 45 44 42 42 43 45 47 50 51 52
50 52 53 53 54 54 55 56 56 56 57 57 57 57 57 57 58 58 58 56 56 56 55 54 55 54 53 51 49 48 46 46 45 46 48 51 50 44 45 47 46 47 49
50 51 52 53 54 55 55 55 56 57 56 56 56 56 56 57 58 58 57 55 55 56 57 55 54 53 53 52 50 49 47 46 47 45 46 47 49 51 48 45 46 47 47
50 51 53 53 54 54 55 56 56 56 56 55 56 56 55 55 56 56 56 55 55 55 56 57 56 55 54 53 53 53 50 49 47 48 48 47 47 48 49 48 48 47 48
50 51 52 53 53 53 54 56 56 56 56 55 55 55 55 55 55 55 55 55 54 54 55 56 56 55 55 55 55 55 54 53 52 51 49 53 51 51 51 49 48 48 50
50 51 52 52 53 53 54 55 56 55 56 55 54 54 54 54 54 55 54 54 54 54 55 54 53 54 54 55 56 56 55 55 53 53 54 54 54 54 53 50 50 48 49
50 50 52 52 53 53 54 54 55 56 55 56 55 53 54 53 53 54 54 54 54 55 54 54 53 52 53 54 56 55 55 55 54 54 54 53 53 54 54 53 52 50 47
48 50 51 53 53 54 54 54 54 55 56 56 55 54 53 53 53 53 52 52 54 54 54 53 52 52 53 53 54 54 55 54 54 54 54 54 54 54 54 54 54 54 52
46 48 51 52 53 54 53 53 53 53 55 56 56 54 53 53 52 51 51 50 52 52 53 52 51 51 53 53 54 54 54 54 53 54 54 54 54 54 55 55 55 54 54
35 46 48 52 53 53 53 53 53 52 53 54 56 55 54 53 52 51 51 51 50 51 52 52 50 50 51 52 54 53 53 53 53 53 53 53 54 54 55 54 54 54 54
42 48 48 52 52 52 53 53 53 52 53 53 55 55 55 53 53 52 52 52 52 52 51 51 51 51 51 51 51 52 52 53 54 54 54 54 53 53 54 54 54 54 54
44 46 50 51 52 53 53 53 53 53 53 53 53 54 54 54 54 53 52 52 53 52 52 51 51 51 51 50 50 49 50 51 52 49 47 44 44 45 45 47 45 45 44
44 44 45 49 48 52 52 53 53 53 54 53 53 53 54 54 54 53 53 52 52 52 52 52 51 51 51 50 50 50 50 51 44 38 37 37 36 35 37 39 38 39 38
43 43 43 44 47 47 52 53 53 54 54 54 53 53 53 54 54 53 53 53 53 53 53 52 51 51 51 48 50 51 49 45 40 36 34 34 34 33 33 33 32 34 34
42 44 44 45 47 48 49 49 53 54 53 53 54 54 54 54 54 54 53 53 53 54 54 53 51 46 43 45 47 45 40 38 35 33 33 32 32 32 31 31 30 30 29
44 44 44 47 47 46 46 48 52 53 53 53 53 54 54 54 54 54 54 54 53 50 47 43 40 38 36 37 37 36 34 32 32 32 32 31 31 31 30 28 28 28 28
44 43 44 46 45 44 44 45 46 49 53 52 52 54 54 54 54 54 53 47 44 42 39 36 35 34 33 33 33 33 31 30 29 30 31 31 31 31 30 27 26 26 26
42 42 43 44 43 42 43 43 43 44 45 48 53 53 54 54 54 48 43 40 38 35 33 32 32 32 31 32 32 31 29 27 27 28 27 27 26 26 26 25 24 22 22
39 39 40 41 41 40 41 41 41 40 41 43 46 46 47 45 41 39 36 34 32 31 31 30 31 31 31 31 30 29 27 26 26 24 25 27 28 28 26 25 23 22 22
37 38 38 39 38 38 39 39 38 38 39 39 39 40 40 38 36 35 33 32 31 30 29 29 29 30 30 30 29 28 27 27 24 24 25 27 27 25 24 23 22 19 17
34 35 37 37 36 36 36 36 36 37 37 35 34 34 34 34 33 32 31 30 30 29 28 27 26 26 27 28 28 28 28 28 26 27 27 26 24 22 21 19 17 15 14
30 31 32 35 34 34 34 34 34 34 33 32 32 32 31 31 31 30 29 29 28 26 25 25 24 24 25 26 27 28 28 28 26 23 22 21 20 18 17 13 11 12 11
28 29 29 31 33 33 32 32 31 30 28 28 27 26 26 26 26 26 26 26 27 26 24 24 24 23 23 24 26 26 24 23 22 21 20 18 16 13 10 9 10 10 9
27 27 28 29 30 31 31 31 30 28 27 25 25 25 24 24 24 24 24 26 25 25 25 25 24 26 27 28 27 25 23 21 19 16 13 12 11 9 9 9 9 9 8

GFSMW_sfc_30mbdewp_105.txt.gz
Dewpoint
51 53 55 57 57 57 57 56 56 57 58 58 57 58 58 59 60 61 60 60 59 57 54 51 49 46 47 50 49 48 48 48 49 49 49 50 52 52 53 53 53 53 53
50 53 55 55 56 55 55 56 56 57 57 57 57 57 58 59 59 60 60 60 57 54 52 49 47 45 49 52 49 47 48 48 49 47 47 46 48 50 51 52 52 52 53
45 52 54 54 55 55 55 55 56 57 57 57 57 57 58 59 58 59 60 58 56 53 52 48 47 47 52 51 49 48 47 46 47 47 45 43 43 45 47 50 52 52 52
47 52 53 54 54 54 55 55 56 57 56 56 56 56 55 56 58 58 59 59 57 55 55 49 50 50 53 52 50 49 47 47 46 46 49 49 46 43 43 46 48 51 51
45 51 53 53 54 54 55 55 56 55 55 56 56 56 57 57 58 57 57 58 58 57 57 55 54 54 54 53 50 49 47 47 47 46 47 49 50 50 47 43 45 47 49
46 51 53 53 54 54 55 55 55 55 56 56 56 56 56 57 57 56 55 56 57 57 57 56 55 54 54 52 51 49 48 48 47 47 47 47 48 48 49 48 47 45 47
45 50 52 53 53 54 54 54 55 54 55 54 56 56 56 57 57 56 55 54 55 56 56 56 55 54 54 54 54 53 52 50 48 47 48 50 49 50 50 49 47 47 49
41 50 52 52 53 53 54 54 54 53 55 54 55 55 55 56 56 56 56 55 55 56 57 57 56 56 55 55 55 55 55 54 53 50 50 49 52 53 52 50 49 47 48
50 51 52 52 53 53 54 54 54 55 55 55 54 54 55 55 55 55 56 55 55 56 57 57 57 56 56 56 55 55 54 56 55 54 54 53 54 54 54 53 51 49 46
48 50 52 52 52 53 53 55 55 55 55 55 54 54 54 54 55 55 54 55 55 55 55 55 56 56 56 56 56 56 56 55 55 55 54 54 54 54 54 53 53 53 51
44 48 51 52 53 53 53 54 55 55 55 56 54 54 54 53 54 54 54 54 55 55 54 54 54 54 55 55 55 55 55 54 54 54 53 53 53 52 54 54 54 54 54
44 50 51 52 53 53 53 53 54 55 55 56 55 54 53 53 53 53 53 53 54 54 54 53 53 52 52 52 52 52 53 53 53 53 53 53 54 54 54 54 53 53 54
44 49 52 53 53 53 53 53 53 53 54 55 55 54 53 53 52 52 51 51 53 54 54 54 53 52 51 52 52 52 53 53 53 53 53 52 52 53 53 53 53 54 53
43 43 49 49 52 54 53 53 53 53 52 54 55 55 54 53 53 52 51 51 51 51 51 52 51 51 51 51 52 52 52 53 53 52 50 49 49 49 49 49 48 46 46
42 43 44 48 49 50 54 54 53 53 53 53 53 54 55 54 54 53 52 51 52 51 51 51 51 51 51 51 50 50 50 50 47 43 40 38 38 37 40 43 40 42 41
43 43 44 46 47 48 48 49 54 54 54 53 53 53 54 54 54 54 53 52 52 52 52 51 51 50 50 50 49 50 49 48 44 40 36 35 34 34 33 33 32 34 35
44 43 44 45 45 45 46 46 48 53 54 54 54 53 53 54 54 54 53 53 52 52 52 51 51 50 49 48 48 47 47 44 40 36 33 32 32 31 30 29 29 29 28
43 43 44 45 44 44 43 44 46 50 55 54 54 54 53 53 54 53 53 53 53 52 51 50 48 45 42 43 45 43 38 36 34 33 32 31 30 30 29 28 28 28 28
42 42 43 44 42 42 42 43 44 46 47 53 53 54 54 54 54 53 53 52 50 48 45 42 40 39 36 37 37 38 33 31 30 31 31 31 30 30 29 26 26 25 24
39 39 40 41 39 39 41 42 42 42 42 45 48 53 55 54 54 54 50 44 44 40 36 34 34 33 33 33 34 33 31 28 27 28 28 28 29 29 28 26 24 22 21
36 37 38 38 37 37 39 39 39 38 40 41 44 47 54 54 52 47 44 39 36 33 32 30 31 31 31 32 31 31 28 26 26 26 26 28 27 27 26 25 23 21 21
33 33 36 36 35 35 36 37 36 37 37 37 38 38 40 43 43 41 36 34 33 31 29 29 28 29 29 30 30 28 27 26 25 25 25 26 25 24 23 21 21 19 18
31 32 33 34 34 34 34 34 34 35 35 34 34 34 34 35 36 35 34 32 32 31 28 27 26 26 28 29 29 28 27 27 25 25 25 24 23 21 20 18 17 16 15
29 30 30 32 32 32 32 32 32 32 32 31 31 32 31 31 31 31 31 30 29 28 26 25 25 25 25 26 27 27 27 26 23 22 20 19 18 17 16 15 13 12 12
28 28 29 30 30 31 31 31 30 29 28 27 27 26 26 26 26 27 27 27 27 26 24 24 24 24 24 25 26 24 23 22 21 20 18 16 14 12 11 11 10 10 9
27 27 28 28 28 28 28 29 29 28 27 25 25 26 25 25 25 25 25 27 27 28 28 27 26 26 27 27 26 25 23 21 19 15 13 12 11 10 9 9 8 8 8

GFSMW_sfc_30mbdewp_108.txt.gz
Dewpoint
34 52 54 57 58 58 58 58 58 57 58 58 58 58 58 59 60 60 60 60 60 60 60 58 55 55 53 51 49 49 49 50 51 50 50 50 52 53 53 53 54 54 54
35 51 54 56 57 57 57 57 57 57 58 57 57 57 59 59 59 60 60 59 60 59 58 55 54 52 52 49 49 48 49 49 51 49 48 48 49 51 52 52 53 53 53
28 42 52 54 56 56 56 56 56 56 57 57 57 57 58 59 58 59 59 60 59 58 55 54 52 49 50 48 48 48 48 48 49 50 47 45 45 47 49 51 52 52 52
30 38 51 53 55 55 55 55 56 55 56 57 56 56 56 56 57 58 60 59 57 55 52 51 48 48 50 48 48 49 48 49 47 48 48 47 46 45 44 47 50 52 52
29 35 49 53 54 54 54 55 55 55 56 56 55 55 54 56 58 58 58 56 56 55 51 49 47 50 50 49 47 48 48 48 47 47 48 49 49 48 44 42 45 47 51
29 38 51 53 54 54 54 55 54 55 55 55 56 55 54 57 57 56 56 55 55 55 52 51 50 53 53 51 49 49 49 48 48 48 48 49 48 49 48 47 47 45 46
42 45 50 53 53 53 54 53 54 54 54 55 55 56 56 57 56 56 56 56 55 55 54 53 53 54 54 53 51 50 49 49 48 48 47 49 49 51 50 48 47 47 49
46 48 51 52 53 53 53 54 54 54 54 55 55 56 56 57 57 56 55 56 56 56 55 54 53 55 54 54 53 52 52 51 50 49 49 50 51 51 50 48 48 47 48
45 48 51 52 52 52 52 53 53 53 53 54 55 55 56 56 57 57 56 56 57 57 56 55 53 52 53 55 54 54 54 53 53 53 52 52 53 54 54 53 52 48 45
45 50 51 52 52 53 53 53 53 52 53 53 53 54 55 55 56 56 56 56 56 57 57 56 56 55 54 55 55 55 54 55 55 55 54 54 54 54 54 54 53 52 51
45 51 51 52 53 53 53 53 53 53 53 54 54 54 54 55 55 55 55 55 56 56 57 56 56 56 55 55 55 55 55 53 54 55 54 53 54 53 53 53 53 53 53
43 48 53 53 53 53 53 53 54 54 54 55 54 54 54 54 54 55 55 55 55 55 56 56 56 56 56 56 55 55 55 54 54 54 54 53 54 53 53 53 53 53 54
42 44 49 53 53 53 53 52 53 54 55 55 55 53 53 53 53 54 54 54 55 54 54 54 54 55 55 55 55 55 55 55 54 54 53 53 53 53 53 54 53 53 53
44 43 46 48 50 54 54 53 53 53 53 55 55 54 53 53 53 53 53 54 54 54 54 54 54 53 53 54 54 54 53 53 53 53 53 52 52 52 51 51 51 50 49
45 44 45 45 46 48 51 54 53 53 53 53 54 55 54 54 53 52 51 51 53 53 54 53 53 53 52 52 52 52 52 52 50 46 43 40 39 39 41 45 45 45 45
45 45 46 44 44 44 45 47 49 54 53 52 53 54 55 54 53 53 52 51 51 51 51 52 52 51 51 50 51 52 51 51 47 42 36 35 34 33 33 32 32 35 39
43 43 44 46 42 42 43 44 46 48 53 53 53 53 54 54 54 53 52 52 52 52 51 50 50 50 50 49 49 49 49 47 44 38 34 32 31 31 30 29 29 28 27
42 41 41 43 41 40 41 42 44 46 47 53 54 53 53 53 54 54 53 52 52 52 52 51 50 49 47 46 47 45 42 40 37 35 33 31 30 29 29 27 25 25 24
39 39 40 39 38 38 39 41 42 42 44 44 49 54 54 53 54 53 53 53 52 51 49 48 47 46 42 42 42 40 36 33 31 31 31 30 30 30 28 24 23 22 23
36 37 38 37 36 36 37 39 39 39 39 40 42 45 48 54 53 53 53 50 50 45 40 37 36 35 35 35 36 35 32 30 29 29 30 29 29 29 26 24 21 20 20
33 34 36 35 34 34 36 37 36 35 37 38 39 39 42 49 54 53 48 45 40 35 33 31 31 32 32 33 33 32 30 28 27 27 27 28 28 27 25 22 21 19 20
32 32 34 34 33 33 33 33 33 34 35 35 35 35 36 38 44 46 40 38 35 32 31 29 28 29 30 31 30 29 29 28 25 24 25 26 25 24 22 21 21 19 18
30 30 31 32 31 31 31 31 31 32 32 32 32 32 33 33 35 35 35 34 33 31 29 28 27 27 28 29 29 28 27 26 24 24 24 24 23 21 20 19 17 15 14
28 29 30 29 29 30 30 30 30 29 29 28 28 28 28 29 30 31 31 32 31 30 28 27 26 26 26 27 27 27 26 25 23 21 18 18 17 16 15 14 14 13 13
28 28 28 28 27 27 27 29 29 28 27 27 27 26 27 27 27 27 27 27 29 29 27 26 25 24 24 25 25 22 20 19 19 18 17 15 13 13 12 11 10 9 8
26 26 25 25 26 25 25 26 27 26 26 25 25 26 26 26 26 25 26 29 29 29 29 28 26 27 26 25 24 23 22 21 19 16 13 12 11 10 9 8 8 8 7

GFSMW_sfc_30mbdewp_111.txt.gz
Dewpoint
26 34 51 54 55 57 58 59 60 60 60 59 59 59 58 60 60 61 61 61 60 61 61 61 59 58 56 55 54 53 53 53 53 52 52 53 54 54 54 54 54 54 55
25 30 47 55 57 57 58 59 59 59 59 59 58 58 60 60 60 61 60 61 60 60 60 60 58 57 55 54 53 52 51 52 53 50 50 48 50 52 54 54 54 54 53
29 31 37 51 55 57 57 58 58 58 59 58 58 58 59 59 59 60 60 60 60 60 60 59 58 57 54 52 52 52 51 50 52 52 48 48 46 49 51 53 53 53 53
39 35 33 48 54 56 56 57 58 58 58 57 56 56 56 55 58 59 59 60 60 60 59 57 57 57 54 52 52 53 52 52 51 51 49 51 49 47 47 50 51 53 53
44 38 35 43 52 56 55 57 58 57 56 57 56 56 56 57 58 58 59 59 59 58 57 56 55 55 54 52 51 52 52 52 51 51 49 49 49 50 46 44 48 51 52
46 49 45 49 53 56 54 57 57 55 55 57 57 57 55 55 56 57 57 57 57 56 55 54 53 53 53 52 51 51 52 52 51 51 50 48 45 46 48 47 46 47 49
46 48 50 52 53 54 53 55 55 54 55 57 57 56 55 55 56 56 57 55 55 53 53 53 53 53 52 51 51 51 52 52 51 51 51 51 51 52 51 50 49 46 49
47 49 50 52 53 53 53 54 53 54 55 56 56 55 56 56 57 57 57 55 55 53 54 53 54 53 52 51 51 51 52 52 52 51 51 52 52 53 52 50 50 46 50
50 50 51 52 52 52 53 53 54 54 54 55 55 55 56 57 57 56 57 57 56 55 55 55 55 54 53 52 51 51 51 51 52 51 52 52 54 54 55 54 53 49 47
49 51 52 52 53 52 53 54 54 53 54 54 54 55 55 57 57 57 56 57 57 55 54 54 54 55 54 54 53 53 53 52 53 52 52 52 54 55 55 55 54 53 51
48 50 52 53 53 53 53 53 53 53 53 53 54 54 55 56 56 56 56 56 57 56 55 53 53 52 53 54 54 53 54 53 53 54 52 53 54 54 54 55 54 53 53
45 47 49 53 53 53 53 53 53 54 54 53 53 54 54 55 56 55 56 56 56 57 57 55 54 52 52 52 53 54 54 53 53 53 53 53 54 53 53 53 53 53 53
41 42 44 47 49 53 53 53 54 53 54 54 54 54 54 54 54 55 55 56 55 56 56 57 55 54 54 54 53 53 54 54 53 54 54 53 54 53 53 53 53 53 54
42 42 44 44 45 47 53 54 54 54 54 55 55 54 54 54 54 54 55 55 55 55 55 55 56 56 55 55 54 53 54 54 54 54 54 54 53 53 53 53 53 53 53
43 44 46 44 44 44 45 47 51 54 54 55 54 54 54 54 54 54 54 54 55 54 54 54 54 55 55 55 55 55 54 54 54 52 49 46 45 45 47 50 50 49 48
44 44 46 45 43 42 42 43 46 47 52 53 54 54 54 54 54 53 53 53 54 54 54 54 54 53 53 53 53 54 53 52 49 45 39 37 36 35 35 35 36 40 45
41 41 42 41 40 40 40 42 44 46 48 53 53 54 54 54 54 54 53 52 53 53 53 53 53 53 52 51 52 53 52 50 46 40 37 34 33 32 31 29 28 28 28
39 38 40 37 37 38 39 41 42 43 45 45 50 53 54 55 54 54 53 53 52 52 52 52 52 52 51 49 49 49 48 45 42 38 35 33 31 31 29 27 25 24 24
37 37 38 36 36 35 37 39 39 39 40 40 42 43 46 53 54 54 54 53 52 52 52 51 50 50 48 45 44 44 39 36 33 33 32 31 30 29 28 25 24 23 24
35 36 36 34 33 34 36 36 36 36 37 37 39 40 42 44 52 54 54 53 52 51 48 46 46 46 43 41 40 39 35 32 30 31 31 31 29 27 25 23 21 19 19
33 33 34 33 32 32 34 34 33 33 35 35 36 36 37 39 42 53 52 50 45 41 38 36 35 37 38 37 37 36 34 31 29 28 28 28 28 26 24 22 20 19 19
30 31 32 32 31 31 31 31 31 31 32 32 33 33 33 35 37 42 41 40 38 35 33 31 30 31 32 34 34 33 32 30 28 26 27 27 26 25 23 22 21 20 19
29 30 30 29 29 29 30 30 29 29 30 29 29 29 30 31 32 34 35 34 33 32 30 29 27 28 30 31 31 29 28 27 25 25 25 25 23 21 21 20 19 17 16
29 29 28 27 26 26 27 28 29 28 28 27 28 28 28 28 29 30 31 32 31 30 28 27 26 27 26 27 27 26 26 25 23 21 18 18 17 17 17 16 16 15 12
26 26 25 26 25 25 25 26 26 27 27 27 27 27 27 27 27 28 28 29 30 29 27 27 26 24 23 24 23 20 18 18 18 18 17 15 15 13 13 12 11 10 8
25 24 24 25 24 23 23 24 25 26 26 25 26 26 26 26 26 26 26 29 29 29 28 27 25 25 24 23 23 22 21 20 19 16 14 13 13 11 9 8 8 7 5

GFSMW_sfc_30mbdewp_114.txt.gz
Dewpoint
27 26 26 34 48 49 51 55 58 61 62 61 61 61 61 61 61 61 62 61 62 61 61 61 61 61 59 58 58 57 54 54 54 52 53 52 53 52 48 49 48 49 51
22 22 25 38 50 51 54 55 57 60 61 61 61 60 60 60 60 61 61 61 61 61 61 61 61 60 59 58 57 56 54 54 54 52 51 50 52 52 51 48 48 49 49
19 26 29 34 46 52 55 55 57 59 61 61 60 60 59 59 59 60 61 61 61 61 60 61 60 59 58 57 56 56 54 53 54 52 49 46 45 49 51 50 48 49 49
34 36 34 33 41 52 56 57 57 58 60 60 59 57 56 55 57 58 59 61 60 61 60 60 59 58 58 57 55 55 54 53 52 52 49 47 45 46 47 49 50 49 49
42 43 41 37 38 52 56 58 58 59 60 60 58 56 54 55 56 57 58 59 60 61 60 60 59 58 57 56 55 55 54 54 52 51 50 50 50 47 43 43 47 49 50
43 45 46 43 44 54 56 57 58 58 58 58 57 56 55 56 56 56 58 58 60 60 59 59 59 58 57 56 55 55 55 54 53 53 50 49 46 46 43 39 44 46 48
46 46 46 47 48 54 54 57 57 57 57 58 57 56 56 56 55 55 55 57 58 56 56 57 57 57 56 55 55 55 55 55 54 53 51 49 47 45 43 42 41 43 45
48 48 49 51 52 53 53 56 56 55 56 57 56 57 56 55 55 55 55 57 57 56 55 55 55 56 56 55 54 54 55 55 54 54 52 50 48 49 47 45 48 46 48
49 50 51 52 53 53 53 55 55 55 56 56 56 56 56 55 55 56 57 57 57 54 53 54 54 55 54 55 55 55 56 56 55 55 54 52 52 54 54 52 51 47 44
49 51 52 52 52 52 53 54 55 55 55 55 55 55 54 55 56 58 57 57 56 55 53 54 55 54 54 54 55 55 55 55 55 55 54 53 54 55 55 55 53 51 48
47 49 51 53 53 53 53 54 54 55 55 54 55 54 54 55 57 57 57 57 56 55 54 54 55 54 53 53 53 53 53 53 53 53 52 52 54 54 55 56 55 54 53
45 47 48 49 49 53 53 53 54 54 54 55 54 54 54 55 56 57 57 57 56 55 54 55 54 54 53 52 52 52 51 52 52 52 52 51 53 53 55 55 54 54 54
42 42 43 44 46 47 53 53 54 54 54 54 53 53 54 54 55 56 57 57 57 56 54 54 53 53 54 54 53 52 52 51 52 52 49 51 52 52 53 53 54 54 54
41 43 44 44 44 45 45 47 53 54 54 54 54 54 54 54 54 55 56 56 56 56 56 54 53 53 52 53 53 54 54 54 53 53 53 53 54 53 53 53 53 53 53
44 43 43 43 43 43 44 44 46 49 54 54 54 54 54 54 54 55 55 56 56 56 56 56 55 54 54 53 52 52 52 53 53 54 54 52 52 52 52 53 53 52 52
41 42 42 41 41 42 42 43 44 46 49 52 54 54 54 53 54 55 55 55 55 55 55 55 55 55 55 54 53 53 52 53 53 49 45 41 41 38 38 38 37 40 49
40 40 39 38 38 40 41 43 43 44 46 47 53 55 53 53 53 54 54 54 54 55 55 55 55 55 54 53 53 53 54 53 50 44 40 38 35 35 33 31 30 29 30
38 38 37 36 36 37 40 41 41 41 41 41 43 45 50 54 54 54 53 53 54 54 54 54 54 54 54 51 52 52 50 47 43 41 38 36 35 35 32 29 27 26 26
37 37 36 34 34 35 37 38 38 39 37 38 39 40 42 45 50 54 54 53 53 53 54 54 54 53 53 49 49 48 45 43 40 38 36 34 32 31 31 28 25 24 24
35 35 35 33 32 33 35 35 35 35 35 36 37 38 38 40 43 46 54 54 54 53 53 52 51 51 50 45 46 46 41 37 34 33 32 32 31 29 28 26 22 20 20
32 33 33 31 31 31 32 32 32 32 33 34 34 35 35 36 39 41 48 54 52 47 43 39 36 37 38 38 39 42 40 35 32 30 29 29 28 27 25 23 20 19 19
31 31 31 30 29 29 30 30 30 30 31 31 31 32 33 34 35 38 40 42 41 38 35 33 31 31 33 33 34 34 34 33 30 27 27 28 26 25 23 22 21 20 20
30 30 29 28 27 27 27 27 29 29 29 30 30 30 31 32 32 34 34 34 34 33 31 30 29 28 30 30 30 30 29 28 26 26 27 26 24 23 22 21 20 20 19
28 27 27 26 25 25 25 26 27 29 29 28 28 29 29 30 30 31 32 32 31 30 29 28 26 26 26 26 27 27 26 26 24 22 20 19 19 19 19 19 19 19 18
26 26 26 25 23 24 23 25 26 27 27 27 28 28 28 28 28 28 29 29 30 29 27 27 25 24 21 21 21 19 18 18 18 18 17 16 16 15 15 15 14 14 13
25 25 24 24 23 22 22 23 25 27 26 26 26 27 27 26 26 26 26 28 28 27 27 26 24 24 23 23 22 22 21 21 20 17 16 16 15 14 13 12 13 13 13